Voltar ao catálogo

STARLINK-11511

AtivoComunicaçõesVLEO
NORAD 62468·PAYLOAD·🇺🇸 United States

Lançado Dec 31, 2024 de Cape Canaveral Space Force Station

Loading…

Próximas Passagens (próximas 24 horas)

TLE

AtualizadoSource: CelesTrak SupGP

Época: Sep 15, 2026, 03:14 UTC

1 62468C 24254G   26258.13520833  .00075184  00000+0  58398-3 0  2589
2 62468  43.0006 161.0804 0001669 265.5159 177.9288 15.70799932    11

Acompanhe STARLINK-11511 em tempo real com AllMySat

Download on the App Store